Tracking 30261 objects as of 18-Feb-2025
HD Live streaming from Space Station
objects crossing your sky now

ONEWEB-0504

Track ONEWEB-0504 now!
10-day predictions
ONEWEB-0504 is classified as:


NORAD ID: 54122
Int'l Code: 2022-138K
Perigee: 1,191.5 km
Apogee: 1,194.3 km
Inclination: 87.9 °
Period: 109.1 minutes
Semi major axis: 7563 km
RCS: Unknown
Launch date: October 22, 2022
Source: United Kingdom (UK)
Launch site: SRIHARIKOTA (SRI)
Your satellite tracking list
Your tracking list is empty




NASA's NSSDC Master Catalog

Two Line Element Set (TLE):
1 54122U 22138K   25048.96222591  .00000021  00000-0  20312-4 0  9990
2 54122  87.9162  41.2075 0001837  98.8263 261.3077 13.19726406112967
Source of the keplerian elements: AFSPC